Temperature
26 25 24 23 22 21 21 20 20 20 20 19 19 19 19 19 19 19 19 18 18 18 19 19 19 19 19 19 18 18 18 18 18 18 18 18 17 17 17 17 17 17 16
26 25 25 24 23 22 21 20 20 20 20 20 19 19 19 19 19 19 19 18 18 18 18 19 19 19 18 18 18 18 18 18 18 18 18 17 17 17 17 17 17 17 16
27 25 25 24 23 22 21 21 20 20 20 20 19 19 19 19 19 19 19 19 18 18 18 19 19 18 18 18 18 18 18 18 18 18 18 18 17 17 17 17 16 16 16
27 26 25 24 23 22 21 21 21 20 20 20 20 19 19 19 19 19 19 19 19 19 19 18 18 18 18 18 18 18 18 18 18 18 18 18 18 17 17 16 16 16 16
28 27 26 25 24 23 22 21 21 20 20 20 20 20 20 19 19 19 19 19 19 19 19 18 18 18 18 18 18 18 18 18 18 18 18 18 18 18 17 16 16 16 16
29 27 26 25 24 23 22 21 21 21 20 20 20 20 20 19 19 19 19 19 19 19 19 19 18 18 18 18 18 18 18 18 18 18 18 18 18 18 18 17 16 16 16
29 27 26 25 24 24 23 22 21 21 21 20 20 20 20 20 19 19 19 19 19 19 19 19 19 18 18 18 18 18 18 18 18 18 18 18 18 18 18 17 16 16 16
29 27 26 25 24 24 23 22 22 21 21 21 20 20 20 20 20 20 19 19 19 19 19 19 19 18 18 18 18 18 18 18 18 18 18 18 18 18 18 17 17 16 16
29 27 26 25 25 24 23 22 22 22 21 21 21 20 20 20 20 20 20 20 19 19 19 19 18 18 18 18 18 18 18 18 18 18 18 18 18 17 17 17 17 17 16
29 28 27 25 25 24 23 22 22 22 21 21 21 21 21 20 20 20 20 20 19 19 19 19 18 18 18 18 18 18 18 18 18 18 18 17 17 17 17 17 17 17 16
29 28 27 26 25 24 23 23 22 22 21 21 21 21 21 20 20 20 20 20 20 19 19 19 18 18 18 18 18 18 18 18 18 17 17 17 17 17 17 17 17 17 16
29 28 27 26 25 24 24 23 22 22 21 21 21 21 21 20 20 20 20 20 20 19 19 19 18 18 18 18 18 18 18 17 17 17 17 17 17 17 17 17 16 16 16
28 27 27 26 25 25 24 23 22 22 21 21 21 21 20 20 20 20 20 19 19 19 19 19 18 18 18 18 18 18 17 17 17 17 17 17 17 17 17 16 16 16 16
27 27 26 25 25 24 24 23 23 22 22 21 21 21 21 20 20 20 20 19 19 19 19 19 18 18 18 18 17 17 17 17 17 17 17 17 17 17 17 16 16 16 16
27 26 25 25 24 24 23 23 22 22 22 22 21 21 21 20 20 20 19 19 19 19 19 19 18 18 18 18 18 17 17 17 17 17 17 17 17 17 16 16 16 16 15
26 25 25 24 24 23 23 23 22 22 22 21 21 21 20 20 20 19 19 19 19 19 19 18 18 18 18 18 18 17 17 17 17 17 17 17 16 16 16 16 16 15 15
26 25 24 24 23 23 23 22 22 22 21 21 21 20 20 20 19 19 19 19 19 19 19 18 18 18 18 18 18 17 17 17 17 17 16 16 16 16 16 16 16 15 15
25 24 24 23 23 22 22 22 22 21 21 21 20 20 20 19 19 19 19 19 18 18 18 18 18 18 18 18 18 17 17 17 17 16 16 16 16 16 16 16 15 15 15
24 23 23 23 23 22 22 22 21 21 21 20 20 20 20 19 19 19 19 19 18 18 18 18 18 18 18 18 17 17 17 16 16 16 16 15 15 15 15 15 15 15 15
23 23 23 23 22 22 21 21 21 20 20 20 20 20 19 19 19 19 19 19 18 18 18 18 18 18 18 18 17 17 16 16 16 16 15 15 15 15 15 15 15 14 14
23 22 22 21 21 21 21 21 20 20 20 20 19 19 19 19 19 18 18 18 18 18 17 17 18 17 17 17 17 17 16 16 15 15 15 15 15 15 15 14 14 14 14
22 21 21 20 20 20 20 20 20 19 19 19 19 19 18 18 18 18 18 18 17 17 17 17 17 17 17 17 17 16 16 16 15 15 15 15 15 15 14 14 14 14 13
21 21 20 20 20 19 19 19 19 19 19 19 18 18 18 18 18 18 17 17 17 17 17 17 16 17 17 16 16 16 16 15 15 15 15 15 15 14 14 14 14 13 13
20 20 20 19 19 19 19 18 18 18 18 18 18 17 17 17 17 17 17 17 17 17 16 16 16 16 16 16 16 16 15 15 15 15 14 14 14 14 14 14 13 13 13
19 19 19 18 18 18 18 18 18 18 17 17 17 17 16 17 17 17 17 17 17 17 16 16 16 16 16 16 16 15 15 15 14 14 14 14 14 14 14 13 13 13 13
18 18 18 18 17 17 17 17 17 17 17 16 16 16 16 16 16 16 16 16 16 16 16 16 16 16 16 15 15 15 15 14 14 14 14 14 13 13 13 13 13 13 12
Wind_Speed
13 13 12 12 12 11 9 8 7 6 4 3 3 3 3 3 2 3 4 3 2 2 1 2 1 1 2 2 2 2 1 2 3 3 2 2 3 3 3 3 3 4 5
14 13 12 11 12 11 10 9 8 7 5 4 3 2 2 3 3 2 3 3 2 1 2 2 1 2 1 2 2 2 1 1 2 2 2 2 2 2 3 3 3 3 4
16 14 13 12 12 12 11 9 9 8 7 6 4 3 3 1 2 3 3 2 2 2 2 3 2 1 2 2 2 2 2 1 1 1 1 1 1 2 1 2 3 3 2
16 16 14 13 13 12 11 9 9 8 7 6 5 5 4 3 3 3 3 3 2 2 2 2 2 1 1 1 1 2 1 1 1 1 1 1 2 2 2 1 2 3 3
15 16 15 13 12 13 12 10 9 8 7 6 5 3 3 3 3 4 4 3 2 2 2 2 2 1 1 1 0 1 1 0 1 1 1 1 1 2 2 2 2 2 2
14 14 14 14 12 12 12 12 10 8 7 6 5 4 3 2 3 4 4 3 3 2 3 3 2 1 1 1 1 1 1 1 1 1 1 0 1 2 2 2 3 3 2
14 13 13 14 13 13 12 13 12 10 8 8 6 5 4 3 3 3 3 3 3 3 3 3 2 1 1 2 2 2 1 1 1 1 1 1 1 1 2 3 3 3 2
14 13 12 12 13 13 12 12 13 11 10 8 7 5 5 5 4 4 3 2 2 3 4 3 3 2 1 1 1 1 2 1 1 1 0 1 1 0 2 2 3 2 2
14 15 14 13 13 13 12 12 12 11 10 9 7 6 6 4 3 4 3 2 2 3 4 4 3 2 1 0 1 1 0 1 1 1 1 1 1 1 1 2 3 2 2
13 14 14 14 13 12 12 12 11 10 9 9 9 8 6 5 4 3 3 2 2 2 3 3 3 2 2 1 0 0 0 1 1 1 1 1 0 0 1 2 2 2 2
12 13 13 13 14 13 13 12 12 11 10 9 7 7 7 6 5 4 3 3 3 3 2 2 2 2 1 1 0 1 1 1 1 1 1 1 1 0 1 1 1 1 2
11 11 12 13 13 13 13 12 12 12 11 9 8 7 7 7 6 5 5 4 4 4 3 2 2 2 2 1 1 0 1 0 1 1 1 1 1 1 0 0 0 1 2
9 9 10 10 10 11 11 11 12 12 12 11 10 8 7 7 6 5 5 5 4 3 3 3 2 1 1 1 1 1 1 0 1 1 1 1 1 1 1 0 1 1 2
9 8 9 8 8 8 8 9 10 10 11 11 10 9 8 7 6 5 5 5 4 4 3 3 3 2 1 0 0 1 2 1 1 2 2 2 1 1 1 1 1 1 2
9 8 7 7 7 7 7 8 7 7 7 8 9 9 8 7 6 6 5 5 5 5 4 3 3 3 2 2 1 1 2 2 1 1 1 3 4 5 3 1 1 1 1
7 7 7 6 7 7 7 7 7 7 6 7 7 8 7 7 7 6 5 5 5 4 4 4 4 3 2 3 4 1 1 1 1 1 2 3 4 4 4 4 4 2 2
5 6 6 6 6 6 6 6 6 7 6 6 6 6 7 7 6 7 6 5 5 4 4 4 4 3 3 4 4 2 1 2 1 1 1 1 2 4 3 3 3 2 2
3 4 5 6 6 6 7 5 6 7 7 6 6 5 6 5 5 5 5 5 4 4 4 4 4 3 4 5 4 2 2 2 2 1 1 1 2 2 2 2 2 1 0
3 2 3 5 5 6 6 6 5 5 6 6 6 6 6 6 6 5 5 5 4 4 4 4 4 3 3 5 4 3 3 3 2 2 1 2 3 3 2 2 2 2 1
3 2 2 4 5 4 4 6 6 6 5 5 5 6 6 6 6 5 5 4 4 5 5 4 4 4 3 5 5 4 3 3 3 3 3 3 3 4 3 2 2 3 3
4 4 4 3 3 4 3 3 3 3 3 3 4 4 4 4 4 4 4 4 5 5 4 4 4 4 5 6 7 6 3 3 3 3 3 3 6 5 4 3 3 3 2
4 4 4 4 3 4 4 3 2 2 3 3 3 3 3 4 4 4 3 3 3 4 4 4 4 3 4 5 7 7 5 3 2 2 1 2 6 6 6 4 4 3 2
3 3 4 4 3 4 3 3 3 3 3 3 2 2 3 2 3 4 4 4 4 4 4 4 4 3 3 4 6 7 6 5 3 2 0 3 5 4 4 6 6 4 3
2 3 3 4 3 4 3 3 3 3 3 3 2 2 3 3 3 3 3 4 3 3 3 3 3 3 3 3 3 3 4 4 3 3 2 4 5 5 4 3 4 5 5
2 3 3 3 3 4 4 4 3 4 4 4 3 3 4 3 3 3 2 2 2 2 3 2 2 2 3 3 4 4 3 3 3 3 3 3 3 4 4 4 4 4 4
2 2 2 3 3 4 4 3 3 4 4 4 4 4 4 4 4 4 2 3 1 3 3 2 2 1 3 6 5 4 3 2 3 3 4 4 4 5 5 5 5 5 5
Wind_Direction
162 158 161 156 152 150 149 152 152 144 152 149 148 155 147 145 134 131 126 133 129 123 126 84 115 111 110 110 117 122 134 132 126 111 91 82 86 93 101 97 97 97 105
161 160 164 160 156 153 154 156 160 163 172 158 146 152 136 151 140 116 120 133 134 160 146 111 115 101 111 119 132 136 130 176 155 144 135 125 107 56 83 99 104 96 105
164 164 168 167 162 159 164 170 166 167 175 165 167 154 136 168 131 135 137 129 111 97 77 114 119 99 118 127 150 163 171 198 247 126 141 145 133 124 87 79 94 104 98
167 168 172 171 167 164 165 160 159 162 166 171 182 182 173 167 149 142 144 139 129 134 142 131 135 120 110 117 211 147 230 175 229 235 194 155 143 150 142 115 114 115 111
169 168 170 167 166 165 164 159 154 158 162 175 183 193 185 169 153 143 142 148 157 156 145 140 138 131 136 135 69 83 299 229 238 256 215 158 156 152 157 167 165 140 138
166 163 162 160 165 165 163 161 157 161 166 177 185 191 198 162 153 158 162 174 171 166 159 149 152 164 146 142 187 212 216 226 286 302 291 221 186 181 153 158 162 153 154
157 160 162 163 165 168 166 161 160 166 172 181 185 185 190 179 182 189 185 193 170 167 160 145 144 152 155 184 187 211 221 202 211 247 273 298 310 158 130 146 152 144 157
156 160 165 165 165 169 165 162 163 168 175 181 183 182 186 193 193 194 207 198 168 154 140 138 147 150 168 188 169 232 205 169 210 240 210 276 294 102 131 151 149 155 163
159 162 169 172 170 169 164 163 162 167 174 177 173 177 187 192 182 169 193 196 167 153 143 146 146 146 147 139 160 219 120 126 155 220 205 227 212 154 157 158 178 176 174
159 163 171 173 168 167 162 161 161 165 172 174 178 180 180 183 183 179 168 152 126 104 134 147 155 158 154 154 180 211 143 156 179 206 190 215 170 182 171 188 214 210 181
159 159 166 170 164 164 165 164 161 165 171 174 173 171 168 176 173 174 175 163 147 145 151 168 167 154 131 133 164 188 140 160 187 209 172 176 159 177 221 200 217 178 149
151 155 161 161 164 168 170 168 167 171 175 173 169 175 170 168 176 179 175 166 163 166 171 184 184 177 152 144 151 160 108 157 206 221 158 162 154 152 300 330 121 128 144
138 144 149 155 161 165 167 170 173 175 176 172 171 173 176 176 176 171 171 167 169 174 179 180 179 181 173 163 147 128 113 106 112 109 152 138 137 145 95 21 108 140 144
135 142 145 147 151 154 155 162 173 176 176 171 172 172 178 177 175 174 173 170 173 177 186 186 181 187 178 153 190 161 139 110 87 77 73 85 98 100 90 148 121 134 136
141 141 144 147 152 155 157 164 170 171 169 165 170 173 174 173 173 175 176 178 184 188 184 180 179 181 179 179 169 195 154 143 137 112 100 88 91 81 65 89 87 124 146
149 147 145 143 155 161 166 166 170 167 158 164 173 170 170 174 177 176 177 181 184 183 182 180 179 191 197 114 104 94 117 127 149 152 135 132 121 107 96 87 84 102 170
147 149 150 152 161 161 163 167 165 158 161 171 172 170 171 176 180 184 179 183 185 183 184 186 172 157 131 128 115 105 186 178 177 177 185 216 133 134 129 116 110 94 128
118 144 162 162 166 166 166 154 157 155 164 169 172 173 176 178 178 178 181 185 186 185 191 189 177 171 172 168 158 170 219 199 183 186 171 146 135 137 122 167 166 179 133
126 137 168 169 161 162 157 149 152 164 167 169 171 179 180 179 182 188 188 187 184 186 193 187 185 182 177 185 178 186 216 201 201 199 196 176 140 127 116 169 182 190 210
125 128 133 129 135 143 150 155 162 169 175 177 178 180 180 182 183 185 191 187 186 191 197 193 189 177 170 184 185 199 231 213 203 199 180 159 152 159 167 214 217 218 224
113 114 108 106 115 126 127 136 152 168 169 160 163 164 166 172 177 178 185 189 196 193 195 190 191 184 177 184 189 192 227 248 236 210 198 176 169 184 200 225 240 229 242
103 108 111 107 105 116 126 133 137 136 130 138 147 159 162 185 175 156 168 183 193 193 203 201 206 197 178 179 187 192 215 251 281 274 229 169 175 195 211 222 226 227 244
110 110 118 115 114 120 130 138 126 118 122 129 143 153 166 186 161 170 180 189 194 204 209 206 208 201 185 177 182 196 218 232 252 293 34 162 190 204 221 222 222 223 233
111 114 123 132 127 131 130 124 124 131 136 147 158 173 188 183 169 182 190 200 197 205 215 217 209 193 181 173 178 194 209 216 226 254 207 190 209 229 235 223 220 225 235
116 123 129 135 133 130 130 132 137 147 157 166 176 194 203 188 178 188 190 204 193 201 216 227 211 216 206 187 176 191 204 214 209 202 208 215 211 221 226 225 221 224 232
133 129 131 136 131 134 137 138 146 157 167 179 195 202 199 189 190 185 166 47 81 134 124 116 159 180 163 161 160 169 183 196 174 192 223 225 221 227 229 228 228 223 225
Height
1510 1514 1517 1519 1522 1523 1525 1527 1528 1529 1531 1532 1533 1534 1535 1536 1537 1537 1537 1538 1538 1539 1539 1540 1540 1541 1542 1542 1543 1544 1545 1546 1546 1547 1547 1548 1549 1549 1550 1550 1550 1551 1551
1508 1512 1515 1518 1520 1522 1524 1526 1528 1529 1530 1532 1533 1535 1536 1536 1537 1537 1537 1538 1538 1538 1540 1540 1540 1541 1542 1542 1543 1544 1544 1545 1546 1547 1547 1548 1550 1549 1550 1550 1550 1550 1550
1504 1509 1513 1516 1519 1521 1523 1525 1526 1528 1530 1531 1533 1535 1536 1537 1537 1538 1538 1538 1538 1539 1539 1540 1540 1541 1541 1542 1543 1543 1544 1545 1546 1546 1547 1547 1548 1549 1550 1550 1550 1550 1550
1501 1506 1510 1514 1517 1519 1521 1523 1525 1527 1529 1531 1533 1534 1535 1536 1537 1537 1537 1538 1538 1538 1539 1539 1540 1540 1541 1542 1543 1543 1544 1544 1544 1545 1546 1547 1547 1547 1548 1550 1549 1549 1549
1497 1502 1507 1511 1515 1518 1520 1522 1523 1526 1528 1530 1532 1533 1535 1536 1536 1537 1537 1538 1538 1538 1538 1539 1539 1540 1540 1541 1542 1542 1543 1543 1543 1544 1545 1545 1545 1546 1547 1547 1548 1548 1549
1494 1500 1505 1509 1513 1516 1519 1520 1522 1524 1526 1529 1531 1532 1534 1535 1536 1537 1537 1537 1538 1538 1538 1538 1539 1539 1540 1540 1541 1541 1542 1542 1543 1543 1544 1544 1544 1544 1545 1545 1546 1547 1548
1492 1498 1503 1506 1510 1514 1517 1519 1520 1523 1525 1527 1529 1531 1533 1534 1535 1536 1537 1537 1537 1537 1538 1538 1538 1539 1539 1540 1540 1540 1541 1541 1541 1542 1542 1542 1543 1543 1543 1544 1545 1546 1547
1488 1495 1500 1505 1508 1512 1515 1517 1519 1521 1524 1526 1528 1530 1531 1532 1534 1535 1536 1537 1537 1537 1537 1538 1538 1538 1539 1539 1539 1539 1540 1540 1540 1540 1540 1541 1541 1541 1542 1542 1543 1544 1545
1487 1493 1498 1503 1506 1510 1513 1515 1517 1520 1522 1524 1526 1528 1530 1531 1533 1534 1535 1535 1536 1536 1536 1537 1537 1538 1538 1538 1538 1538 1539 1539 1539 1539 1539 1539 1539 1540 1540 1541 1542 1543 1543
1485 1490 1495 1499 1504 1507 1511 1514 1516 1518 1521 1523 1525 1526 1528 1529 1531 1532 1533 1534 1534 1535 1536 1537 1537 1537 1537 1538 1538 1537 1537 1537 1537 1537 1538 1538 1538 1538 1539 1539 1540 1541 1541
1483 1487 1492 1497 1501 1505 1509 1511 1514 1516 1519 1521 1523 1525 1526 1528 1529 1530 1532 1532 1533 1534 1535 1536 1536 1537 1537 1536 1536 1536 1536 1536 1536 1536 1536 1536 1536 1537 1537 1538 1538 1539 1539
1481 1485 1490 1494 1499 1503 1506 1509 1511 1514 1517 1519 1522 1524 1525 1527 1528 1529 1530 1531 1532 1533 1534 1534 1535 1536 1536 1536 1536 1535 1535 1535 1535 1534 1534 1534 1535 1535 1536 1536 1537 1537 1538
1481 1485 1489 1493 1497 1501 1504 1507 1510 1513 1515 1518 1520 1522 1524 1525 1527 1528 1530 1530 1531 1532 1533 1533 1534 1534 1535 1535 1534 1534 1534 1534 1534 1533 1533 1533 1533 1533 1534 1534 1535 1535 1536
1481 1485 1488 1492 1495 1498 1502 1505 1508 1511 1514 1516 1517 1519 1521 1523 1525 1526 1528 1529 1530 1531 1532 1532 1533 1533 1533 1533 1533 1533 1533 1533 1533 1533 1532 1532 1532 1531 1532 1532 1533 1534 1535
1481 1484 1487 1491 1494 1497 1500 1503 1506 1509 1511 1513 1515 1517 1519 1521 1523 1524 1526 1527 1528 1530 1530 1531 1531 1532 1532 1532 1532 1532 1532 1532 1532 1531 1531 1531 1531 1530 1530 1531 1531 1532 1533
1480 1484 1487 1490 1493 1495 1498 1500 1503 1506 1509 1511 1513 1515 1517 1519 1521 1522 1524 1525 1526 1527 1528 1529 1529 1530 1531 1531 1531 1531 1531 1531 1531 1530 1530 1530 1530 1529 1529 1530 1530 1531 1531
1480 1483 1486 1489 1491 1494 1496 1498 1501 1504 1506 1508 1510 1512 1514 1516 1518 1520 1521 1523 1524 1525 1526 1526 1527 1528 1528 1529 1529 1529 1529 1529 1529 1529 1529 1529 1529 1528 1528 1528 1529 1529 1530
1480 1483 1486 1488 1491 1493 1495 1497 1500 1503 1505 1508 1510 1511 1512 1513 1515 1517 1518 1520 1522 1523 1524 1525 1525 1525 1526 1526 1527 1527 1527 1527 1527 1527 1527 1527 1527 1527 1527 1526 1526 1527 1528
1480 1483 1485 1487 1489 1491 1493 1495 1497 1500 1503 1505 1507 1509 1511 1511 1512 1514 1515 1517 1518 1520 1521 1522 1522 1523 1523 1524 1524 1525 1525 1525 1525 1525 1525 1525 1525 1525 1525 1525 1525 1525 1525
1479 1482 1484 1486 1488 1490 1492 1494 1496 1498 1500 1502 1504 1505 1507 1509 1510 1511 1512 1514 1515 1516 1518 1518 1519 1520 1521 1521 1522 1522 1522 1522 1522 1522 1523 1523 1523 1523 1523 1523 1523 1522 1523
1479 1481 1483 1485 1486 1488 1490 1492 1494 1496 1498 1499 1501 1503 1504 1506 1507 1508 1510 1511 1512 1513 1514 1514 1516 1517 1517 1518 1519 1519 1519 1519 1520 1520 1519 1519 1520 1520 1521 1521 1521 1521 1521
1478 1480 1482 1484 1485 1487 1489 1490 1492 1494 1495 1496 1498 1499 1500 1503 1505 1506 1507 1508 1509 1510 1511 1512 1513 1514 1514 1515 1515 1516 1516 1517 1517 1517 1517 1517 1517 1517 1518 1518 1518 1518 1518
1478 1480 1481 1482 1484 1485 1487 1489 1490 1492 1493 1494 1496 1497 1498 1500 1502 1503 1504 1505 1506 1507 1509 1510 1510 1510 1511 1511 1512 1512 1513 1513 1514 1514 1514 1514 1514 1514 1514 1514 1514 1515 1515
1478 1479 1480 1481 1483 1484 1485 1487 1488 1490 1491 1492 1494 1495 1497 1498 1499 1501 1502 1503 1504 1505 1506 1507 1507 1508 1508 1508 1508 1508 1509 1510 1510 1510 1511 1511 1511 1511 1511 1511 1510 1511 1511
1477 1478 1479 1480 1481 1482 1483 1485 1486 1488 1489 1490 1492 1493 1495 1496 1498 1499 1500 1501 1502 1503 1504 1504 1505 1505 1504 1504 1505 1505 1505 1506 1506 1507 1507 1507 1507 1507 1507 1507 1507 1507 1507
1476 1477 1478 1479 1479 1481 1482 1483 1484 1486 1487 1488 1490 1492 1493 1494 1496 1497 1498 1498 1500 1500 1501 1501 1502 1501 1502 1501 1502 1502 1503 1503 1504 1504 1503 1503 1503 1503 1503 1503 1503 1503 1502